Weather in Zarechnoye

Russia / Jewish Autonomous Oblast     48°57′43″N   130°46′22″E
temp.,
°C
wind,
m/s
gust,
m/s
humid.,
%
clouds,
%
prec.,
mm/h
press.,
hPa
HPBL,
m
10 may, mon
mon1001:00+5wnw1197100 0.0 100846
04:00+5nw1198100 0.3 100949
07:00+5wsw1197100 0.1 101060
10:00+6wsw1295100 0.1 1011300
13:00+6wsw2394100 0.1 1012446
16:00+6w2391100 0.2 1012428
19:00+6wsw1193100 0.0 1013191
22:00+5sse0096100 0.0 101417
11 may, tue
tue1101:00+4sse0197100 0.0 101511
04:00+4sse019678 0.0 101513
07:00+5se1190100 0.0 101669
10:00+11s246592 0.0 10161158
13:00+12s345499 0.1 10161479
16:00+14se4549100 0.1 10141654
19:00+12se476073 0.0 1014973
22:00+9se5127497 0.0 1014525
12 may, wed
wed1201:00+8se51373100 0.0 1013630
04:00+8ese61575100 0.0 1011763
07:00+8ese81774100 0.0 1008773
10:00+9se81581100 0.7 1006902
13:00+8se71690100 5.3 10031143
16:00+10sse71487100 7.2 10021499
19:00+12se71478100 0.2 998973
22:00+9sse2287100 3.4 100048
13 may, thu
thu1301:00+8ssw2988100 0.1 1001377
04:00+8wsw31086100 0.1 1003661
07:00+7wsw3108528 0.0 1006655
10:00+13w511520 0.0 10071240
13:00+19wnw511325 0.0 10062661
16:00+21nw4112481 0.0 10053393
19:00+18nne374271 0.0 1006302
22:00+11e226338 0.0 100727
14 may, fri
fri1401:00+9ese2268100 0.0 100828
04:00+9ese22685 0.0 100638
07:00+10e23648 0.0 100767
10:00+18se363867 0.0 1004639
13:00+21s61235100 0.0 10022244
16:00+18sse61458100 0.1 9991785
19:00+14sse51386100 1.5 998974
22:00+13sse41094100 4.0 997591